Mississippi River (Missouri), Thebes (07022000)

StateMissouriLatestUnknown (97700 cfs)
RiverMississippi RiverRatingObservedEstimated
Updated2022-09-25 21:30 (27 minutes ago)Flood - The river is flooding. Obstacles can be treacherous or deadly. The river should be avoided at this stage for casual trips and definitely for the inexperienced. Trips should be attempted only with protective gear and equipment.Flood(none)(none)
Discharge97700 cfs (median: 127000 cfs)High - The river is high and potentially dangerous, especially for the young and / or inexperienced. Normal stream obstacles are sometimes difficult to navigate. Extended distances can be attempted, but canoe travel may not be advisable.High(none)(none)
Height8.13 feetGood - Conditions are ideal for a canoe or kayak. Boats typically will drag on fewer than one-quarter of riffles, if at all, and portages are unnecessary or rare. Normal float lengths can be attempted without a problem.Good(none)(none)
TrendSteady (falling over 24 hours)Low - River is low but can still be floated. Some riffles are okay but most come with significant dragging and might need a portage. Float lengths should be reduced to accommodate low flow, dragging, and portages.Low(none)(none)
USGSExternal icon USGS Site (External icon Duck Duck Go Maps)Poor - River is too low to float comfortably. Most or all riffles will drag or must be portaged and some obstacles (such as slick shelf rock) cause undue problems. Avoid the river at this stage for casual paddling trips.Poor(none)(none)

Trending Data

Plot Image

Trips for Mississippi River (Missouri), Thebes (07022000)

DateStartEndDistanceConditionDischargeHeightFishingDetails

A total of 0 rows are displayed.

Condition Descriptions

Fishing Conditions

Fish Species

Notes

Classic Trip List

The classic River Trips application is still available for use. It is updated with the new system using a data retrofit. It is no longer maintained. The original River Trips application is no longer updated (as of 1 Dec 2016) but can be checked for errors or for the condition of the data before it was converted to the new system.

Gauge Data Table

ObservationHeightDischargeMaximum
Discharge
Minimum
Discharge
Mean
Discharge
P05P10P20P25P50
(Median)
P75P80P90P95
2022-09-25 21:30 8.13 97700 603000 (1993) 52600 (1937) 160000 68300 77700 95600 102000 127000 177000 204000 316000 386000
2022-09-25 21:00 8.13 97700 603000 (1993) 52600 (1937) 160000 68300 77700 95600 102000 127000 177000 204000 316000 386000
2022-09-25 20:30 8.14 97700 603000 (1993) 52600 (1937) 160000 68300 77700 95600 102000 127000 177000 204000 316000 386000
2022-09-25 20:00 8.16 97900 603000 (1993) 52600 (1937) 160000 68300 77700 95600 102000 127000 177000 204000 316000 386000
2022-09-25 19:30 8.17 97900 603000 (1993) 52600 (1937) 160000 68300 77700 95600 102000 127000 177000 204000 316000 386000
2022-09-25 19:00 8.19 97900 603000 (1993) 52600 (1937) 160000 68300 77700 95600 102000 127000 177000 204000 316000 386000
2022-09-25 18:30 8.20 98100 603000 (1993) 52600 (1937) 160000 68300 77700 95600 102000 127000 177000 204000 316000 386000
2022-09-25 18:00 8.20 98200 603000 (1993) 52600 (1937) 160000 68300 77700 95600 102000 127000 177000 204000 316000 386000
2022-09-25 17:30 8.22 98200 603000 (1993) 52600 (1937) 160000 68300 77700 95600 102000 127000 177000 204000 316000 386000
2022-09-25 17:00 8.22 98300 603000 (1993) 52600 (1937) 160000 68300 77700 95600 102000 127000 177000 204000 316000 386000
2022-09-25 16:30 8.24 98400 603000 (1993) 52600 (1937) 160000 68300 77700 95600 102000 127000 177000 204000 316000 386000
2022-09-25 16:00 8.25 98400 603000 (1993) 52600 (1937) 160000 68300 77700 95600 102000 127000 177000 204000 316000 386000
2022-09-25 15:30 8.27 98500 603000 (1993) 52600 (1937) 160000 68300 77700 95600 102000 127000 177000 204000 316000 386000
2022-09-25 15:00 8.28 98600 603000 (1993) 52600 (1937) 160000 68300 77700 95600 102000 127000 177000 204000 316000 386000
2022-09-25 14:30 8.29 98700 603000 (1993) 52600 (1937) 160000 68300 77700 95600 102000 127000 177000 204000 316000 386000
2022-09-25 14:00 8.32 98800 603000 (1993) 52600 (1937) 160000 68300 77700 95600 102000 127000 177000 204000 316000 386000
2022-09-25 13:30 8.33 98900 603000 (1993) 52600 (1937) 160000 68300 77700 95600 102000 127000 177000 204000 316000 386000
2022-09-25 13:00 8.34 99200 603000 (1993) 52600 (1937) 160000 68300 77700 95600 102000 127000 177000 204000 316000 386000
2022-09-25 12:30 8.35 99100 603000 (1993) 52600 (1937) 160000 68300 77700 95600 102000 127000 177000 204000 316000 386000
2022-09-25 12:00 8.36 99400 603000 (1993) 52600 (1937) 160000 68300 77700 95600 102000 127000 177000 204000 316000 386000
2022-09-25 11:30 8.38 99400 603000 (1993) 52600 (1937) 160000 68300 77700 95600 102000 127000 177000 204000 316000 386000
2022-09-25 11:00 8.43 99700 603000 (1993) 52600 (1937) 160000 68300 77700 95600 102000 127000 177000 204000 316000 386000
2022-09-25 10:30 8.41 99600 603000 (1993) 52600 (1937) 160000 68300 77700 95600 102000 127000 177000 204000 316000 386000
2022-09-25 10:00 8.41 99800 603000 (1993) 52600 (1937) 160000 68300 77700 95600 102000 127000 177000 204000 316000 386000
2022-09-25 09:30 8.43 99800 603000 (1993) 52600 (1937) 160000 68300 77700 95600 102000 127000 177000 204000 316000 386000
2022-09-25 09:00 8.45 99900 603000 (1993) 52600 (1937) 160000 68300 77700 95600 102000 127000 177000 204000 316000 386000
2022-09-25 08:30 8.46 100000 603000 (1993) 52600 (1937) 160000 68300 77700 95600 102000 127000 177000 204000 316000 386000
2022-09-25 08:00 8.49 100000 603000 (1993) 52600 (1937) 160000 68300 77700 95600 102000 127000 177000 204000 316000 386000
2022-09-25 07:30 8.50 100000 603000 (1993) 52600 (1937) 160000 68300 77700 95600 102000 127000 177000 204000 316000 386000
2022-09-25 07:00 8.52 100000 603000 (1993) 52600 (1937) 160000 68300 77700 95600 102000 127000 177000 204000 316000 386000
2022-09-25 06:30 8.53 101000 603000 (1993) 52600 (1937) 160000 68300 77700 95600 102000 127000 177000 204000 316000 386000
2022-09-25 06:00 8.54 100000 603000 (1993) 52600 (1937) 160000 68300 77700 95600 102000 127000 177000 204000 316000 386000
2022-09-25 05:30 8.56 101000 603000 (1993) 52600 (1937) 160000 68300 77700 95600 102000 127000 177000 204000 316000 386000
2022-09-25 05:00 8.57 101000 603000 (1993) 52600 (1937) 160000 68300 77700 95600 102000 127000 177000 204000 316000 386000
2022-09-25 04:30 8.58 101000 603000 (1993) 52600 (1937) 160000 68300 77700 95600 102000 127000 177000 204000 316000 386000
2022-09-25 04:00 8.61 101000 603000 (1993) 52600 (1937) 160000 68300 77700 95600 102000 127000 177000 204000 316000 386000
2022-09-25 03:30 8.63 101000 603000 (1993) 52600 (1937) 160000 68300 77700 95600 102000 127000 177000 204000 316000 386000
2022-09-25 03:00 8.65 101000 603000 (1993) 52600 (1937) 160000 68300 77700 95600 102000 127000 177000 204000 316000 386000
2022-09-25 02:30 8.67 102000 603000 (1993) 52600 (1937) 160000 68300 77700 95600 102000 127000 177000 204000 316000 386000
2022-09-25 02:00 8.68 102000 603000 (1993) 52600 (1937) 160000 68300 77700 95600 102000 127000 177000 204000 316000 386000
2022-09-25 01:30 8.70 102000 603000 (1993) 52600 (1937) 160000 68300 77700 95600 102000 127000 177000 204000 316000 386000
2022-09-25 01:00 8.71 102000 603000 (1993) 52600 (1937) 160000 68300 77700 95600 102000 127000 177000 204000 316000 386000
2022-09-25 00:30 8.73 102000 603000 (1993) 52600 (1937) 160000 68300 77700 95600 102000 127000 177000 204000 316000 386000
2022-09-25 00:00 8.75 102000 603000 (1993) 52600 (1937) 160000 68300 77700 95600 102000 127000 177000 204000 316000 386000
2022-09-24 23:30 8.77 102000 577000 (1993) 50500 (1937) 160000 69800 74000 93700 103000 125000 178000 211000 311000 359000
2022-09-24 23:00 8.79 102000 577000 (1993) 50500 (1937) 160000 69800 74000 93700 103000 125000 178000 211000 311000 359000
2022-09-24 22:30 8.80 103000 577000 (1993) 50500 (1937) 160000 69800 74000 93700 103000 125000 178000 211000 311000 359000
2022-09-24 22:00 8.82 103000 577000 (1993) 50500 (1937) 160000 69800 74000 93700 103000 125000 178000 211000 311000 359000
2022-09-24 21:30 8.84 103000 577000 (1993) 50500 (1937) 160000 69800 74000 93700 103000 125000 178000 211000 311000 359000
2022-09-24 21:00 8.86 103000 577000 (1993) 50500 (1937) 160000 69800 74000 93700 103000 125000 178000 211000 311000 359000
2022-09-24 20:30 8.86 103000 577000 (1993) 50500 (1937) 160000 69800 74000 93700 103000 125000 178000 211000 311000 359000
2022-09-24 20:00 8.89 103000 577000 (1993) 50500 (1937) 160000 69800 74000 93700 103000 125000 178000 211000 311000 359000
2022-09-24 19:30 8.90 103000 577000 (1993) 50500 (1937) 160000 69800 74000 93700 103000 125000 178000 211000 311000 359000
2022-09-24 19:00 8.91 103000 577000 (1993) 50500 (1937) 160000 69800 74000 93700 103000 125000 178000 211000 311000 359000
2022-09-24 18:30 8.94 104000 577000 (1993) 50500 (1937) 160000 69800 74000 93700 103000 125000 178000 211000 311000 359000
2022-09-24 18:00 8.96 104000 577000 (1993) 50500 (1937) 160000 69800 74000 93700 103000 125000 178000 211000 311000 359000
2022-09-24 17:30 8.98 104000 577000 (1993) 50500 (1937) 160000 69800 74000 93700 103000 125000 178000 211000 311000 359000
2022-09-24 17:00 8.97 104000 577000 (1993) 50500 (1937) 160000 69800 74000 93700 103000 125000 178000 211000 311000 359000
2022-09-24 16:30 9.01 104000 577000 (1993) 50500 (1937) 160000 69800 74000 93700 103000 125000 178000 211000 311000 359000
2022-09-24 16:00 9.03 104000 577000 (1993) 50500 (1937) 160000 69800 74000 93700 103000 125000 178000 211000 311000 359000
2022-09-24 15:30 9.03 105000 577000 (1993) 50500 (1937) 160000 69800 74000 93700 103000 125000 178000 211000 311000 359000
2022-09-24 15:00 9.10 105000 577000 (1993) 50500 (1937) 160000 69800 74000 93700 103000 125000 178000 211000 311000 359000
2022-09-24 14:30 9.07 105000 577000 (1993) 50500 (1937) 160000 69800 74000 93700 103000 125000 178000 211000 311000 359000
2022-09-24 14:00 9.09 105000 577000 (1993) 50500 (1937) 160000 69800 74000 93700 103000 125000 178000 211000 311000 359000
2022-09-24 13:30 9.09 104000 577000 (1993) 50500 (1937) 160000 69800 74000 93700 103000 125000 178000 211000 311000 359000
2022-09-24 13:00 9.11 105000 577000 (1993) 50500 (1937) 160000 69800 74000 93700 103000 125000 178000 211000 311000 359000
2022-09-24 12:30 9.10 105000 577000 (1993) 50500 (1937) 160000 69800 74000 93700 103000 125000 178000 211000 311000 359000
2022-09-24 12:00 9.12 105000 577000 (1993) 50500 (1937) 160000 69800 74000 93700 103000 125000 178000 211000 311000 359000
2022-09-24 11:30 9.13 105000 577000 (1993) 50500 (1937) 160000 69800 74000 93700 103000 125000 178000 211000 311000 359000
2022-09-24 11:00 9.14 105000 577000 (1993) 50500 (1937) 160000 69800 74000 93700 103000 125000 178000 211000 311000 359000
2022-09-24 10:30 9.15 106000 577000 (1993) 50500 (1937) 160000 69800 74000 93700 103000 125000 178000 211000 311000 359000
2022-09-24 10:00 9.16 106000 577000 (1993) 50500 (1937) 160000 69800 74000 93700 103000 125000 178000 211000 311000 359000
2022-09-24 09:30 9.17 106000 577000 (1993) 50500 (1937) 160000 69800 74000 93700 103000 125000 178000 211000 311000 359000
2022-09-24 09:00 9.21 106000 577000 (1993) 50500 (1937) 160000 69800 74000 93700 103000 125000 178000 211000 311000 359000
2022-09-24 08:30 9.20 106000 577000 (1993) 50500 (1937) 160000 69800 74000 93700 103000 125000 178000 211000 311000 359000
2022-09-24 08:00 9.21 106000 577000 (1993) 50500 (1937) 160000 69800 74000 93700 103000 125000 178000 211000 311000 359000
2022-09-24 07:30 9.23 106000 577000 (1993) 50500 (1937) 160000 69800 74000 93700 103000 125000 178000 211000 311000 359000
2022-09-24 07:00 9.23 106000 577000 (1993) 50500 (1937) 160000 69800 74000 93700 103000 125000 178000 211000 311000 359000
2022-09-24 06:30 9.23 107000 577000 (1993) 50500 (1937) 160000 69800 74000 93700 103000 125000 178000 211000 311000 359000
2022-09-24 06:00 9.26 106000 577000 (1993) 50500 (1937) 160000 69800 74000 93700 103000 125000 178000 211000 311000 359000
2022-09-24 05:30 9.25 107000 577000 (1993) 50500 (1937) 160000 69800 74000 93700 103000 125000 178000 211000 311000 359000
2022-09-24 05:00 9.31 107000 577000 (1993) 50500 (1937) 160000 69800 74000 93700 103000 125000 178000 211000 311000 359000
2022-09-24 04:30 9.28 107000 577000 (1993) 50500 (1937) 160000 69800 74000 93700 103000 125000 178000 211000 311000 359000
2022-09-24 04:00 9.30 107000 577000 (1993) 50500 (1937) 160000 69800 74000 93700 103000 125000 178000 211000 311000 359000
2022-09-24 03:30 9.31 107000 577000 (1993) 50500 (1937) 160000 69800 74000 93700 103000 125000 178000 211000 311000 359000
2022-09-24 03:00 9.35 107000 577000 (1993) 50500 (1937) 160000 69800 74000 93700 103000 125000 178000 211000 311000 359000
2022-09-24 02:30 9.32 107000 577000 (1993) 50500 (1937) 160000 69800 74000 93700 103000 125000 178000 211000 311000 359000
2022-09-24 02:00 9.35 107000 577000 (1993) 50500 (1937) 160000 69800 74000 93700 103000 125000 178000 211000 311000 359000
2022-09-24 01:30 9.35 107000 577000 (1993) 50500 (1937) 160000 69800 74000 93700 103000 125000 178000 211000 311000 359000
2022-09-24 01:00 9.26 107000 577000 (1993) 50500 (1937) 160000 69800 74000 93700 103000 125000 178000 211000 311000 359000
2022-09-24 00:30 9.38 107000 577000 (1993) 50500 (1937) 160000 69800 74000 93700 103000 125000 178000 211000 311000 359000
2022-09-24 00:00 9.37 107000 577000 (1993) 50500 (1937) 160000 69800 74000 93700 103000 125000 178000 211000 311000 359000
2022-09-23 23:30 9.38 108000 555000 (2008) 51000 (1937) 159000 68700 75400 92200 98200 123000 187000 215000 318000 353000
2022-09-23 23:00 9.38 108000 555000 (2008) 51000 (1937) 159000 68700 75400 92200 98200 123000 187000 215000 318000 353000
2022-09-23 22:30 9.40 108000 555000 (2008) 51000 (1937) 159000 68700 75400 92200 98200 123000 187000 215000 318000 353000
2022-09-23 22:00 9.40 108000 555000 (2008) 51000 (1937) 159000 68700 75400 92200 98200 123000 187000 215000 318000 353000
2022-09-23 21:30 9.42 108000 555000 (2008) 51000 (1937) 159000 68700 75400 92200 98200 123000 187000 215000 318000 353000
2022-09-23 21:00 9.38 108000 555000 (2008) 51000 (1937) 159000 68700 75400 92200 98200 123000 187000 215000 318000 353000
2022-09-23 20:30 9.47 108000 555000 (2008) 51000 (1937) 159000 68700 75400 92200 98200 123000 187000 215000 318000 353000
2022-09-23 20:00 9.43 108000 555000 (2008) 51000 (1937) 159000 68700 75400 92200 98200 123000 187000 215000 318000 353000
2022-09-23 19:30 9.43 108000 555000 (2008) 51000 (1937) 159000 68700 75400 92200 98200 123000 187000 215000 318000 353000
2022-09-23 19:00 9.42 108000 555000 (2008) 51000 (1937) 159000 68700 75400 92200 98200 123000 187000 215000 318000 353000
2022-09-23 18:30 9.42 108000 555000 (2008) 51000 (1937) 159000 68700 75400 92200 98200 123000 187000 215000 318000 353000
2022-09-23 18:00 9.43 108000 555000 (2008) 51000 (1937) 159000 68700 75400 92200 98200 123000 187000 215000 318000 353000
2022-09-23 17:30 9.45 108000 555000 (2008) 51000 (1937) 159000 68700 75400 92200 98200 123000 187000 215000 318000 353000
2022-09-23 17:00 9.46 108000 555000 (2008) 51000 (1937) 159000 68700 75400 92200 98200 123000 187000 215000 318000 353000
2022-09-23 16:30 9.45 108000 555000 (2008) 51000 (1937) 159000 68700 75400 92200 98200 123000 187000 215000 318000 353000
2022-09-23 16:00 9.51 108000 555000 (2008) 51000 (1937) 159000 68700 75400 92200 98200 123000 187000 215000 318000 353000
2022-09-23 15:30 9.46 108000 555000 (2008) 51000 (1937) 159000 68700 75400 92200 98200 123000 187000 215000 318000 353000
2022-09-23 15:00 9.46 108000 555000 (2008) 51000 (1937) 159000 68700 75400 92200 98200 123000 187000 215000 318000 353000
2022-09-23 14:30 9.47 108000 555000 (2008) 51000 (1937) 159000 68700 75400 92200 98200 123000 187000 215000 318000 353000
2022-09-23 14:00 9.47 109000 555000 (2008) 51000 (1937) 159000 68700 75400 92200 98200 123000 187000 215000 318000 353000
2022-09-23 13:30 9.47 108000 555000 (2008) 51000 (1937) 159000 68700 75400 92200 98200 123000 187000 215000 318000 353000
2022-09-23 13:00 9.49 108000 555000 (2008) 51000 (1937) 159000 68700 75400 92200 98200 123000 187000 215000 318000 353000
2022-09-23 12:30 9.47 108000 555000 (2008) 51000 (1937) 159000 68700 75400 92200 98200 123000 187000 215000 318000 353000
2022-09-23 12:00 9.51 108000 555000 (2008) 51000 (1937) 159000 68700 75400 92200 98200 123000 187000 215000 318000 353000
2022-09-23 11:30 9.49 109000 555000 (2008) 51000 (1937) 159000 68700 75400 92200 98200 123000 187000 215000 318000 353000
2022-09-23 11:00 9.51 109000 555000 (2008) 51000 (1937) 159000 68700 75400 92200 98200 123000 187000 215000 318000 353000
2022-09-23 10:30 9.40 109000 555000 (2008) 51000 (1937) 159000 68700 75400 92200 98200 123000 187000 215000 318000 353000
2022-09-23 10:00 9.51 109000 555000 (2008) 51000 (1937) 159000 68700 75400 92200 98200 123000 187000 215000 318000 353000
2022-09-23 09:30 9.46 109000 555000 (2008) 51000 (1937) 159000 68700 75400 92200 98200 123000 187000 215000 318000 353000
2022-09-23 09:00 9.50 109000 555000 (2008) 51000 (1937) 159000 68700 75400 92200 98200 123000 187000 215000 318000 353000
2022-09-23 08:30 9.50 109000 555000 (2008) 51000 (1937) 159000 68700 75400 92200 98200 123000 187000 215000 318000 353000
2022-09-23 08:00 9.48 109000 555000 (2008) 51000 (1937) 159000 68700 75400 92200 98200 123000 187000 215000 318000 353000
2022-09-23 07:30 9.53 109000 555000 (2008) 51000 (1937) 159000 68700 75400 92200 98200 123000 187000 215000 318000 353000
2022-09-23 07:00 9.47 109000 555000 (2008) 51000 (1937) 159000 68700 75400 92200 98200 123000 187000 215000 318000 353000
2022-09-23 06:30 9.48 109000 555000 (2008) 51000 (1937) 159000 68700 75400 92200 98200 123000 187000 215000 318000 353000
2022-09-23 06:00 9.49 109000 555000 (2008) 51000 (1937) 159000 68700 75400 92200 98200 123000 187000 215000 318000 353000
2022-09-23 05:30 9.50 109000 555000 (2008) 51000 (1937) 159000 68700 75400 92200 98200 123000 187000 215000 318000 353000
2022-09-23 05:00 9.46 109000 555000 (2008) 51000 (1937) 159000 68700 75400 92200 98200 123000 187000 215000 318000 353000
2022-09-23 04:30 9.49 109000 555000 (2008) 51000 (1937) 159000 68700 75400 92200 98200 123000 187000 215000 318000 353000
2022-09-23 04:00 9.47 109000 555000 (2008) 51000 (1937) 159000 68700 75400 92200 98200 123000 187000 215000 318000 353000
2022-09-23 03:30 9.46 109000 555000 (2008) 51000 (1937) 159000 68700 75400 92200 98200 123000 187000 215000 318000 353000
2022-09-23 03:00 9.47 109000 555000 (2008) 51000 (1937) 159000 68700 75400 92200 98200 123000 187000 215000 318000 353000
2022-09-23 02:30 9.46 109000 555000 (2008) 51000 (1937) 159000 68700 75400 92200 98200 123000 187000 215000 318000 353000
2022-09-23 02:00 9.45 109000 555000 (2008) 51000 (1937) 159000 68700 75400 92200 98200 123000 187000 215000 318000 353000
2022-09-23 01:30 9.45 108000 555000 (2008) 51000 (1937) 159000 68700 75400 92200 98200 123000 187000 215000 318000 353000
2022-09-23 01:00 9.44 108000 555000 (2008) 51000 (1937) 159000 68700 75400 92200 98200 123000 187000 215000 318000 353000
2022-09-23 00:30 9.44 108000 555000 (2008) 51000 (1937) 159000 68700 75400 92200 98200 123000 187000 215000 318000 353000
2022-09-23 00:00 9.43 108000 555000 (2008) 51000 (1937) 159000 68700 75400 92200 98200 123000 187000 215000 318000 353000
2022-09-22 23:30 9.42 108000 605000 (2008) 52500 (1937) 160000 68100 75800 89900 93700 121000 187000 212000 339000 361000
2022-09-22 23:00 9.49 109000 605000 (2008) 52500 (1937) 160000 68100 75800 89900 93700 121000 187000 212000 339000 361000
2022-09-22 22:30 9.42 108000 605000 (2008) 52500 (1937) 160000 68100 75800 89900 93700 121000 187000 212000 339000 361000
2022-09-22 22:00 9.42 108000 605000 (2008) 52500 (1937) 160000 68100 75800 89900 93700 121000 187000 212000 339000 361000
2022-09-22 21:30 9.41 109000 605000 (2008) 52500 (1937) 160000 68100 75800 89900 93700 121000 187000 212000 339000 361000
2022-09-22 21:00 9.41 108000 605000 (2008) 52500 (1937) 160000 68100 75800 89900 93700 121000 187000 212000 339000 361000
2022-09-22 20:30 9.40 108000 605000 (2008) 52500 (1937) 160000 68100 75800 89900 93700 121000 187000 212000 339000 361000
2022-09-22 20:00 9.40 108000 605000 (2008) 52500 (1937) 160000 68100 75800 89900 93700 121000 187000 212000 339000 361000
2022-09-22 19:30 9.40 107000 605000 (2008) 52500 (1937) 160000 68100 75800 89900 93700 121000 187000 212000 339000 361000
2022-09-22 19:00 9.39 108000 605000 (2008) 52500 (1937) 160000 68100 75800 89900 93700 121000 187000 212000 339000 361000
2022-09-22 18:30 9.38 108000 605000 (2008) 52500 (1937) 160000 68100 75800 89900 93700 121000 187000 212000 339000 361000
2022-09-22 18:00 9.44 108000 605000 (2008) 52500 (1937) 160000 68100 75800 89900 93700 121000 187000 212000 339000 361000
2022-09-22 17:30 9.39 108000 605000 (2008) 52500 (1937) 160000 68100 75800 89900 93700 121000 187000 212000 339000 361000
2022-09-22 17:00 9.36 108000 605000 (2008) 52500 (1937) 160000 68100 75800 89900 93700 121000 187000 212000 339000 361000
2022-09-22 16:30 9.39 108000 605000 (2008) 52500 (1937) 160000 68100 75800 89900 93700 121000 187000 212000 339000 361000
2022-09-22 16:00 9.36 108000 605000 (2008) 52500 (1937) 160000 68100 75800 89900 93700 121000 187000 212000 339000 361000
2022-09-22 15:30 9.33 108000 605000 (2008) 52500 (1937) 160000 68100 75800 89900 93700 121000 187000 212000 339000 361000
2022-09-22 15:00 9.37 108000 605000 (2008) 52500 (1937) 160000 68100 75800 89900 93700 121000 187000 212000 339000 361000
2022-09-22 14:30 9.35 108000 605000 (2008) 52500 (1937) 160000 68100 75800 89900 93700 121000 187000 212000 339000 361000
2022-09-22 14:00 9.32 108000 605000 (2008) 52500 (1937) 160000 68100 75800 89900 93700 121000 187000 212000 339000 361000
2022-09-22 13:30 9.32 108000 605000 (2008) 52500 (1937) 160000 68100 75800 89900 93700 121000 187000 212000 339000 361000
2022-09-22 13:00 9.29 107000 605000 (2008) 52500 (1937) 160000 68100 75800 89900 93700 121000 187000 212000 339000 361000
2022-09-22 12:30 9.31 107000 605000 (2008) 52500 (1937) 160000 68100 75800 89900 93700 121000 187000 212000 339000 361000
2022-09-22 12:00 9.29 107000 605000 (2008) 52500 (1937) 160000 68100 75800 89900 93700 121000 187000 212000 339000 361000
2022-09-22 11:30 9.28 107000 605000 (2008) 52500 (1937) 160000 68100 75800 89900 93700 121000 187000 212000 339000 361000
2022-09-22 11:00 9.26 107000 605000 (2008) 52500 (1937) 160000 68100 75800 89900 93700 121000 187000 212000 339000 361000
2022-09-22 10:30 9.13 107000 605000 (2008) 52500 (1937) 160000 68100 75800 89900 93700 121000 187000 212000 339000 361000
2022-09-22 10:00 9.27 107000 605000 (2008) 52500 (1937) 160000 68100 75800 89900 93700 121000 187000 212000 339000 361000
2022-09-22 09:30 9.25 107000 605000 (2008) 52500 (1937) 160000 68100 75800 89900 93700 121000 187000 212000 339000 361000
2022-09-22 09:00 9.25 107000 605000 (2008) 52500 (1937) 160000 68100 75800 89900 93700 121000 187000 212000 339000 361000
2022-09-22 08:30 9.24 107000 605000 (2008) 52500 (1937) 160000 68100 75800 89900 93700 121000 187000 212000 339000 361000
2022-09-22 08:00 9.22 107000 605000 (2008) 52500 (1937) 160000 68100 75800 89900 93700 121000 187000 212000 339000 361000
2022-09-22 07:30 9.22 106000 605000 (2008) 52500 (1937) 160000 68100 75800 89900 93700 121000 187000 212000 339000 361000
2022-09-22 07:00 9.20 107000 605000 (2008) 52500 (1937) 160000 68100 75800 89900 93700 121000 187000 212000 339000 361000
2022-09-22 06:30 9.20 107000 605000 (2008) 52500 (1937) 160000 68100 75800 89900 93700 121000 187000 212000 339000 361000
2022-09-22 06:00 9.19 107000 605000 (2008) 52500 (1937) 160000 68100 75800 89900 93700 121000 187000 212000 339000 361000
2022-09-22 05:30 9.18 106000 605000 (2008) 52500 (1937) 160000 68100 75800 89900 93700 121000 187000 212000 339000 361000
2022-09-22 05:00 9.18 107000 605000 (2008) 52500 (1937) 160000 68100 75800 89900 93700 121000 187000 212000 339000 361000
2022-09-22 04:30 9.16 106000 605000 (2008) 52500 (1937) 160000 68100 75800 89900 93700 121000 187000 212000 339000 361000
2022-09-22 04:00 9.14 106000 605000 (2008) 52500 (1937) 160000 68100 75800 89900 93700 121000 187000 212000 339000 361000
2022-09-22 03:30 9.14 106000 605000 (2008) 52500 (1937) 160000 68100 75800 89900 93700 121000 187000 212000 339000 361000
2022-09-22 03:00 9.14 107000 605000 (2008) 52500 (1937) 160000 68100 75800 89900 93700 121000 187000 212000 339000 361000
2022-09-22 02:30 9.12 106000 605000 (2008) 52500 (1937) 160000 68100 75800 89900 93700 121000 187000 212000 339000 361000
2022-09-22 02:00 9.13 106000 605000 (2008) 52500 (1937) 160000 68100 75800 89900 93700 121000 187000 212000 339000 361000
2022-09-22 01:30 9.12 106000 605000 (2008) 52500 (1937) 160000 68100 75800 89900 93700 121000 187000 212000 339000 361000
2022-09-22 01:00 9.10 106000 605000 (2008) 52500 (1937) 160000 68100 75800 89900 93700 121000 187000 212000 339000 361000
2022-09-22 00:30 9.10 106000 605000 (2008) 52500 (1937) 160000 68100 75800 89900 93700 121000 187000 212000 339000 361000
2022-09-22 00:00 9.10 106000 605000 (2008) 52500 (1937) 160000 68100 75800 89900 93700 121000 187000 212000 339000 361000
2022-09-21 23:30 9.11 106000 640000 (2008) 54100 (1937) 161000 66900 75000 89200 95600 123000 195000 201000 333000 383000
2022-09-21 23:00 9.06 106000 640000 (2008) 54100 (1937) 161000 66900 75000 89200 95600 123000 195000 201000 333000 383000
2022-09-21 22:30 9.05 106000 640000 (2008) 54100 (1937) 161000 66900 75000 89200 95600 123000 195000 201000 333000 383000
2022-09-21 22:00 9.05 106000 640000 (2008) 54100 (1937) 161000 66900 75000 89200 95600 123000 195000 201000 333000 383000
2022-09-21 21:30 9.05 106000 640000 (2008) 54100 (1937) 161000 66900 75000 89200 95600 123000 195000 201000 333000 383000
2022-09-21 21:00 8.99 106000 640000 (2008) 54100 (1937) 161000 66900 75000 89200 95600 123000 195000 201000 333000 383000
2022-09-21 20:30 9.04 106000 640000 (2008) 54100 (1937) 161000 66900 75000 89200 95600 123000 195000 201000 333000 383000
2022-09-21 20:00 9.01 106000 640000 (2008) 54100 (1937) 161000 66900 75000 89200 95600 123000 195000 201000 333000 383000
2022-09-21 19:30 8.98 105000 640000 (2008) 54100 (1937) 161000 66900 75000 89200 95600 123000 195000 201000 333000 383000
2022-09-21 19:00 8.98 105000 640000 (2008) 54100 (1937) 161000 66900 75000 89200 95600 123000 195000 201000 333000 383000
2022-09-21 18:30 8.96 105000 640000 (2008) 54100 (1937) 161000 66900 75000 89200 95600 123000 195000 201000 333000 383000
2022-09-21 18:00 8.97 105000 640000 (2008) 54100 (1937) 161000 66900 75000 89200 95600 123000 195000 201000 333000 383000
2022-09-21 17:30 8.95 105000 640000 (2008) 54100 (1937) 161000 66900 75000 89200 95600 123000 195000 201000 333000 383000
2022-09-21 17:00 8.95 105000 640000 (2008) 54100 (1937) 161000 66900 75000 89200 95600 123000 195000 201000 333000 383000
2022-09-21 16:30 8.94 105000 640000 (2008) 54100 (1937) 161000 66900 75000 89200 95600 123000 195000 201000 333000 383000
2022-09-21 16:00 8.93 105000 640000 (2008) 54100 (1937) 161000 66900 75000 89200 95600 123000 195000 201000 333000 383000
2022-09-21 15:30 8.91 104000 640000 (2008) 54100 (1937) 161000 66900 75000 89200 95600 123000 195000 201000 333000 383000
2022-09-21 15:00 8.91 104000 640000 (2008) 54100 (1937) 161000 66900 75000 89200 95600 123000 195000 201000 333000 383000
2022-09-21 14:30 8.92 105000 640000 (2008) 54100 (1937) 161000 66900 75000 89200 95600 123000 195000 201000 333000 383000
2022-09-21 14:00 8.89 104000 640000 (2008) 54100 (1937) 161000 66900 75000 89200 95600 123000 195000 201000 333000 383000
2022-09-21 13:30 8.86 104000 640000 (2008) 54100 (1937) 161000 66900 75000 89200 95600 123000 195000 201000 333000 383000
2022-09-21 13:00 8.86 104000 640000 (2008) 54100 (1937) 161000 66900 75000 89200 95600 123000 195000 201000 333000 383000
2022-09-21 12:30 8.84 104000 640000 (2008) 54100 (1937) 161000 66900 75000 89200 95600 123000 195000 201000 333000 383000
2022-09-21 12:00 8.83 104000 640000 (2008) 54100 (1937) 161000 66900 75000 89200 95600 123000 195000 201000 333000 383000
2022-09-21 11:30 8.83 104000 640000 (2008) 54100 (1937) 161000 66900 75000 89200 95600 123000 195000 201000 333000 383000
2022-09-21 11:00 8.81 104000 640000 (2008) 54100 (1937) 161000 66900 75000 89200 95600 123000 195000 201000 333000 383000
2022-09-21 10:30 8.82 104000 640000 (2008) 54100 (1937) 161000 66900 75000 89200 95600 123000 195000 201000 333000 383000
2022-09-21 10:00 8.79 104000 640000 (2008) 54100 (1937) 161000 66900 75000 89200 95600 123000 195000 201000 333000 383000
2022-09-21 09:30 8.66 104000 640000 (2008) 54100 (1937) 161000 66900 75000 89200 95600 123000 195000 201000 333000 383000
2022-09-21 09:00 8.80 103000 640000 (2008) 54100 (1937) 161000 66900 75000 89200 95600 123000 195000 201000 333000 383000
2022-09-21 08:30 8.75 103000 640000 (2008) 54100 (1937) 161000 66900 75000 89200 95600 123000 195000 201000 333000 383000
2022-09-21 08:00 8.74 103000 640000 (2008) 54100 (1937) 161000 66900 75000 89200 95600 123000 195000 201000 333000 383000
2022-09-21 07:30 8.73 104000 640000 (2008) 54100 (1937) 161000 66900 75000 89200 95600 123000 195000 201000 333000 383000
2022-09-21 07:00 8.74 103000 640000 (2008) 54100 (1937) 161000 66900 75000 89200 95600 123000 195000 201000 333000 383000
2022-09-21 06:30 8.71 103000 640000 (2008) 54100 (1937) 161000 66900 75000 89200 95600 123000 195000 201000 333000 383000
2022-09-21 06:00 8.71 103000 640000 (2008) 54100 (1937) 161000 66900 75000 89200 95600 123000 195000 201000 333000 383000
2022-09-21 05:30 8.70 103000 640000 (2008) 54100 (1937) 161000 66900 75000 89200 95600 123000 195000 201000 333000 383000
2022-09-21 05:00 8.65 103000 640000 (2008) 54100 (1937) 161000 66900 75000 89200 95600 123000 195000 201000 333000 383000
2022-09-21 04:30 8.48 102000 640000 (2008) 54100 (1937) 161000 66900 75000 89200 95600 123000 195000 201000 333000 383000
2022-09-21 04:00 8.67 102000 640000 (2008) 54100 (1937) 161000 66900 75000 89200 95600 123000 195000 201000 333000 383000
2022-09-21 03:30 8.66 102000 640000 (2008) 54100 (1937) 161000 66900 75000 89200 95600 123000 195000 201000 333000 383000
2022-09-21 03:00 8.64 102000 640000 (2008) 54100 (1937) 161000 66900 75000 89200 95600 123000 195000 201000 333000 383000
2022-09-21 02:30 8.63 102000 640000 (2008) 54100 (1937) 161000 66900 75000 89200 95600 123000 195000 201000 333000 383000
2022-09-21 02:00 8.61 102000 640000 (2008) 54100 (1937) 161000 66900 75000 89200 95600 123000 195000 201000 333000 383000
2022-09-21 01:30 8.62 102000 640000 (2008) 54100 (1937) 161000 66900 75000 89200 95600 123000 195000 201000 333000 383000
2022-09-21 01:00 8.61 102000 640000 (2008) 54100 (1937) 161000 66900 75000 89200 95600 123000 195000 201000 333000 383000
2022-09-21 00:30 8.59 102000 640000 (2008) 54100 (1937) 161000 66900 75000 89200 95600 123000 195000 201000 333000 383000
2022-09-21 00:00 8.57 102000 640000 (2008) 54100 (1937) 161000 66900 75000 89200 95600 123000 195000 201000 333000 383000
2022-09-20 23:30 8.57 101000 645000 (2008) 55400 (1937) 162000 66600 77100 90700 97000 123000 185000 205000 308000 406000
2022-09-20 23:00 8.56 102000 645000 (2008) 55400 (1937) 162000 66600 77100 90700 97000 123000 185000 205000 308000 406000
2022-09-20 22:30 8.59 102000 645000 (2008) 55400 (1937) 162000 66600 77100 90700 97000 123000 185000 205000 308000 406000
2022-09-20 22:00 8.55 101000 645000 (2008) 55400 (1937) 162000 66600 77100 90700 97000 123000 185000 205000 308000 406000
2022-09-20 21:30 8.55 101000 645000 (2008) 55400 (1937) 162000 66600 77100 90700 97000 123000 185000 205000 308000 406000
2022-09-20 21:00 8.53 101000 645000 (2008) 55400 (1937) 162000 66600 77100 90700 97000 123000 185000 205000 308000 406000
2022-09-20 20:30 8.52 101000 645000 (2008) 55400 (1937) 162000 66600 77100 90700 97000 123000 185000 205000 308000 406000
2022-09-20 20:00 8.51 101000 645000 (2008) 55400 (1937) 162000 66600 77100 90700 97000 123000 185000 205000 308000 406000
2022-09-20 19:30 8.50 101000 645000 (2008) 55400 (1937) 162000 66600 77100 90700 97000 123000 185000 205000 308000 406000
2022-09-20 19:00 8.50 101000 645000 (2008) 55400 (1937) 162000 66600 77100 90700 97000 123000 185000 205000 308000 406000
2022-09-20 18:30 8.47 101000 645000 (2008) 55400 (1937) 162000 66600 77100 90700 97000 123000 185000 205000 308000 406000
2022-09-20 18:00 8.49 101000 645000 (2008) 55400 (1937) 162000 66600 77100 90700 97000 123000 185000 205000 308000 406000
2022-09-20 17:30 8.49 101000 645000 (2008) 55400 (1937) 162000 66600 77100 90700 97000 123000 185000 205000 308000 406000
2022-09-20 17:00 8.48 101000 645000 (2008) 55400 (1937) 162000 66600 77100 90700 97000 123000 185000 205000 308000 406000
2022-09-20 16:30 8.47 101000 645000 (2008) 55400 (1937) 162000 66600 77100 90700 97000 123000 185000 205000 308000 406000
2022-09-20 16:00 8.48 100000 645000 (2008) 55400 (1937) 162000 66600 77100 90700 97000 123000 185000 205000 308000 406000
2022-09-20 15:30 8.50 100000 645000 (2008) 55400 (1937) 162000 66600 77100 90700 97000 123000 185000 205000 308000 406000
2022-09-20 15:00 8.45 100000 645000 (2008) 55400 (1937) 162000 66600 77100 90700 97000 123000 185000 205000 308000 406000
2022-09-20 14:30 8.43 100000 645000 (2008) 55400 (1937) 162000 66600 77100 90700 97000 123000 185000 205000 308000 406000
2022-09-20 14:00 8.43 100000 645000 (2008) 55400 (1937) 162000 66600 77100 90700 97000 123000 185000 205000 308000 406000
2022-09-20 13:30 8.41 100000 645000 (2008) 55400 (1937) 162000 66600 77100 90700 97000 123000 185000 205000 308000 406000
2022-09-20 13:00 8.41 100000 645000 (2008) 55400 (1937) 162000 66600 77100 90700 97000 123000 185000 205000 308000 406000
2022-09-20 12:30 8.42 100000 645000 (2008) 55400 (1937) 162000 66600 77100 90700 97000 123000 185000 205000 308000 406000
2022-09-20 12:00 8.37 100000 645000 (2008) 55400 (1937) 162000 66600 77100 90700 97000 123000 185000 205000 308000 406000
2022-09-20 11:30 8.44 100000 645000 (2008) 55400 (1937) 162000 66600 77100 90700 97000 123000 185000 205000 308000 406000
2022-09-20 11:00 8.37 100000 645000 (2008) 55400 (1937) 162000 66600 77100 90700 97000 123000 185000 205000 308000 406000
2022-09-20 10:30 8.40 100000 645000 (2008) 55400 (1937) 162000 66600 77100 90700 97000 123000 185000 205000 308000 406000
2022-09-20 10:00 8.43 99900 645000 (2008) 55400 (1937) 162000 66600 77100 90700 97000 123000 185000 205000 308000 406000
2022-09-20 09:30 8.38 99900 645000 (2008) 55400 (1937) 162000 66600 77100 90700 97000 123000 185000 205000 308000 406000
2022-09-20 09:00 8.46 99800 645000 (2008) 55400 (1937) 162000 66600 77100 90700 97000 123000 185000 205000 308000 406000
2022-09-20 08:30 8.41 99900 645000 (2008) 55400 (1937) 162000 66600 77100 90700 97000 123000 185000 205000 308000 406000
2022-09-20 08:00 8.42 100000 645000 (2008) 55400 (1937) 162000 66600 77100 90700 97000 123000 185000 205000 308000 406000
2022-09-20 07:30 8.44 99800 645000 (2008) 55400 (1937) 162000 66600 77100 90700 97000 123000 185000 205000 308000 406000
2022-09-20 07:00 8.40 99800 645000 (2008) 55400 (1937) 162000 66600 77100 90700 97000 123000 185000 205000 308000 406000
2022-09-20 06:30 8.43 99800 645000 (2008) 55400 (1937) 162000 66600 77100 90700 97000 123000 185000 205000 308000 406000
2022-09-20 06:00 8.43 99800 645000 (2008) 55400 (1937) 162000 66600 77100 90700 97000 123000 185000 205000 308000 406000
2022-09-20 05:30 8.43 99800 645000 (2008) 55400 (1937) 162000 66600 77100 90700 97000 123000 185000 205000 308000 406000
2022-09-20 05:00 8.44 99900 645000 (2008) 55400 (1937) 162000 66600 77100 90700 97000 123000 185000 205000 308000 406000
2022-09-20 04:30 8.43 99600 645000 (2008) 55400 (1937) 162000 66600 77100 90700 97000 123000 185000 205000 308000 406000
2022-09-20 04:00 8.44 99900 645000 (2008) 55400 (1937) 162000 66600 77100 90700 97000 123000 185000 205000 308000 406000
2022-09-20 03:30 8.44 99900 645000 (2008) 55400 (1937) 162000 66600 77100 90700 97000 123000 185000 205000 308000 406000
2022-09-20 03:00 8.46 100000 645000 (2008) 55400 (1937) 162000 66600 77100 90700 97000 123000 185000 205000 308000 406000
2022-09-20 02:30 8.46 99900 645000 (2008) 55400 (1937) 162000 66600 77100 90700 97000 123000 185000 205000 308000 406000
2022-09-20 02:00 8.47 100000 645000 (2008) 55400 (1937) 162000 66600 77100 90700 97000 123000 185000 205000 308000 406000
2022-09-20 01:30 8.47 100000 645000 (2008) 55400 (1937) 162000 66600 77100 90700 97000 123000 185000 205000 308000 406000
2022-09-20 01:00 8.48 100000 645000 (2008) 55400 (1937) 162000 66600 77100 90700 97000 123000 185000 205000 308000 406000
2022-09-20 00:30 8.49 100000 645000 (2008) 55400 (1937) 162000 66600 77100 90700 97000 123000 185000 205000 308000 406000
2022-09-20 00:00 8.50 101000 645000 (2008) 55400 (1937) 162000 66600 77100 90700 97000 123000 185000 205000 308000 406000
2022-09-19 23:30 8.50 100000 619000 (2008) 55300 (1937) 163000 66600 74900 90800 99600 123000 186000 208000 324000 425000
2022-09-19 23:00 8.57 100000 619000 (2008) 55300 (1937) 163000 66600 74900 90800 99600 123000 186000 208000 324000 425000
2022-09-19 22:30 8.53 100000 619000 (2008) 55300 (1937) 163000 66600 74900 90800 99600 123000 186000 208000 324000 425000
2022-09-19 22:00 8.55 101000 619000 (2008) 55300 (1937) 163000 66600 74900 90800 99600 123000 186000 208000 324000 425000
2022-09-19 21:30 8.55 101000 619000 (2008) 55300 (1937) 163000 66600 74900 90800 99600 123000 186000 208000 324000 425000
2022-09-19 21:00 8.57 101000 619000 (2008) 55300 (1937) 163000 66600 74900 90800 99600 123000 186000 208000 324000 425000
2022-09-19 20:30 8.57 101000 619000 (2008) 55300 (1937) 163000 66600 74900 90800 99600 123000 186000 208000 324000 425000
2022-09-19 20:00 8.59 101000 619000 (2008) 55300 (1937) 163000 66600 74900 90800 99600 123000 186000 208000 324000 425000
2022-09-19 19:30 8.61 101000 619000 (2008) 55300 (1937) 163000 66600 74900 90800 99600 123000 186000 208000 324000 425000
2022-09-19 19:00 8.60 101000 619000 (2008) 55300 (1937) 163000 66600 74900 90800 99600 123000 186000 208000 324000 425000
2022-09-19 18:30 8.60 101000 619000 (2008) 55300 (1937) 163000 66600 74900 90800 99600 123000 186000 208000 324000 425000
2022-09-19 18:00 8.61 101000 619000 (2008) 55300 (1937) 163000 66600 74900 90800 99600 123000 186000 208000 324000 425000
2022-09-19 17:30 8.58 101000 619000 (2008) 55300 (1937) 163000 66600 74900 90800 99600 123000 186000 208000 324000 425000
2022-09-19 17:00 8.63 101000 619000 (2008) 55300 (1937) 163000 66600 74900 90800 99600 123000 186000 208000 324000 425000
2022-09-19 16:30 8.64 101000 619000 (2008) 55300 (1937) 163000 66600 74900 90800 99600 123000 186000 208000 324000 425000
2022-09-19 16:00 8.65 102000 619000 (2008) 55300 (1937) 163000 66600 74900 90800 99600 123000 186000 208000 324000 425000
2022-09-19 15:30 8.67 102000 619000 (2008) 55300 (1937) 163000 66600 74900 90800 99600 123000 186000 208000 324000 425000
2022-09-19 15:00 8.67 102000 619000 (2008) 55300 (1937) 163000 66600 74900 90800 99600 123000 186000 208000 324000 425000
2022-09-19 14:30 8.70 102000 619000 (2008) 55300 (1937) 163000 66600 74900 90800 99600 123000 186000 208000 324000 425000
2022-09-19 14:00 8.71 102000 619000 (2008) 55300 (1937) 163000 66600 74900 90800 99600 123000 186000 208000 324000 425000
2022-09-19 13:30 8.62 102000 619000 (2008) 55300 (1937) 163000 66600 74900 90800 99600 123000 186000 208000 324000 425000
2022-09-19 13:00 8.73 102000 619000 (2008) 55300 (1937) 163000 66600 74900 90800 99600 123000 186000 208000 324000 425000
2022-09-19 12:30 8.75 102000 619000 (2008) 55300 (1937) 163000 66600 74900 90800 99600 123000 186000 208000 324000 425000
2022-09-19 12:00 8.75 102000 619000 (2008) 55300 (1937) 163000 66600 74900 90800 99600 123000 186000 208000 324000 425000
2022-09-19 11:30 8.76 103000 619000 (2008) 55300 (1937) 163000 66600 74900 90800 99600 123000 186000 208000 324000 425000
2022-09-19 11:00 8.77 103000 619000 (2008) 55300 (1937) 163000 66600 74900 90800 99600 123000 186000 208000 324000 425000
2022-09-19 10:30 8.77 103000 619000 (2008) 55300 (1937) 163000 66600 74900 90800 99600 123000 186000 208000 324000 425000
2022-09-19 10:00 8.76 103000 619000 (2008) 55300 (1937) 163000 66600 74900 90800 99600 123000 186000 208000 324000 425000
2022-09-19 09:30 8.80 103000 619000 (2008) 55300 (1937) 163000 66600 74900 90800 99600 123000 186000 208000 324000 425000
2022-09-19 09:00 8.82 103000 619000 (2008) 55300 (1937) 163000 66600 74900 90800 99600 123000 186000 208000 324000 425000
2022-09-19 08:30 8.87 102000 619000 (2008) 55300 (1937) 163000 66600 74900 90800 99600 123000 186000 208000 324000 425000
2022-09-19 08:00 8.83 103000 619000 (2008) 55300 (1937) 163000 66600 74900 90800 99600 123000 186000 208000 324000 425000
2022-09-19 07:30 8.83 103000 619000 (2008) 55300 (1937) 163000 66600 74900 90800 99600 123000 186000 208000 324000 425000
2022-09-19 07:00 8.85 103000 619000 (2008) 55300 (1937) 163000 66600 74900 90800 99600 123000 186000 208000 324000 425000
2022-09-19 06:30 8.86 103000 619000 (2008) 55300 (1937) 163000 66600 74900 90800 99600 123000 186000 208000 324000 425000
2022-09-19 06:00 8.85 103000 619000 (2008) 55300 (1937) 163000 66600 74900 90800 99600 123000 186000 208000 324000 425000
2022-09-19 05:30 8.87 103000 619000 (2008) 55300 (1937) 163000 66600 74900 90800 99600 123000 186000 208000 324000 425000
2022-09-19 05:00 8.89 103000 619000 (2008) 55300 (1937) 163000 66600 74900 90800 99600 123000 186000 208000 324000 425000
2022-09-19 04:30 8.89 104000 619000 (2008) 55300 (1937) 163000 66600 74900 90800 99600 123000 186000 208000 324000 425000
2022-09-19 04:00 8.90 104000 619000 (2008) 55300 (1937) 163000 66600 74900 90800 99600 123000 186000 208000 324000 425000
2022-09-19 03:30 8.91 104000 619000 (2008) 55300 (1937) 163000 66600 74900 90800 99600 123000 186000 208000 324000 425000
2022-09-19 03:00 8.91 104000 619000 (2008) 55300 (1937) 163000 66600 74900 90800 99600 123000 186000 208000 324000 425000
2022-09-19 02:30 8.92 104000 619000 (2008) 55300 (1937) 163000 66600 74900 90800 99600 123000 186000 208000 324000 425000
2022-09-19 02:00 8.92 104000 619000 (2008) 55300 (1937) 163000 66600 74900 90800 99600 123000 186000 208000 324000 425000
2022-09-19 01:30 8.94 104000 619000 (2008) 55300 (1937) 163000 66600 74900 90800 99600 123000 186000 208000 324000 425000
2022-09-19 01:00 8.95 104000 619000 (2008) 55300 (1937) 163000 66600 74900 90800 99600 123000 186000 208000 324000 425000
2022-09-19 00:30 8.95 104000 619000 (2008) 55300 (1937) 163000 66600 74900 90800 99600 123000 186000 208000 324000 425000
2022-09-19 00:00 8.84 104000 619000 (2008) 55300 (1937) 163000 66600 74900 90800 99600 123000 186000 208000 324000 425000
2022-09-18 23:30 8.95 104000 572000 (2008) 54600 (1937) 161000 66600 72800 89500 101000 123000 180000 197000 324000 430000
2022-09-18 23:00 8.96 104000 572000 (2008) 54600 (1937) 161000 66600 72800 89500 101000 123000 180000 197000 324000 430000
2022-09-18 22:30 8.95 104000 572000 (2008) 54600 (1937) 161000 66600 72800 89500 101000 123000 180000 197000 324000 430000
2022-09-18 22:00 8.96 104000 572000 (2008) 54600 (1937) 161000 66600 72800 89500 101000 123000 180000 197000 324000 430000
2022-09-18 21:30 8.96 104000 572000 (2008) 54600 (1937) 161000 66600 72800 89500 101000 123000 180000 197000 324000 430000
2022-09-18 21:00 8.97 104000 572000 (2008) 54600 (1937) 161000 66600 72800 89500 101000 123000 180000 197000 324000 430000
2022-09-18 20:30 8.96 105000 572000 (2008) 54600 (1937) 161000 66600 72800 89500 101000 123000 180000 197000 324000 430000
2022-09-18 20:00 8.98 105000 572000 (2008) 54600 (1937) 161000 66600 72800 89500 101000 123000 180000 197000 324000 430000
2022-09-18 19:30 8.96 105000 572000 (2008) 54600 (1937) 161000 66600 72800 89500 101000 123000 180000 197000 324000 430000
2022-09-18 19:00 9.06 104000 572000 (2008) 54600 (1937) 161000 66600 72800 89500 101000 123000 180000 197000 324000 430000
2022-09-18 18:30 8.98 105000 572000 (2008) 54600 (1937) 161000 66600 72800 89500 101000 123000 180000 197000 324000 430000
2022-09-18 18:00 8.97 105000 572000 (2008) 54600 (1937) 161000 66600 72800 89500 101000 123000 180000 197000 324000 430000
2022-09-18 17:30 8.95 105000 572000 (2008) 54600 (1937) 161000 66600 72800 89500 101000 123000 180000 197000 324000 430000
2022-09-18 17:00 9.00 105000 572000 (2008) 54600 (1937) 161000 66600 72800 89500 101000 123000 180000 197000 324000 430000
2022-09-18 16:30 8.93 105000 572000 (2008) 54600 (1937) 161000 66600 72800 89500 101000 123000 180000 197000 324000 430000
2022-09-18 16:00 8.96 105000 572000 (2008) 54600 (1937) 161000 66600 72800 89500 101000 123000 180000 197000 324000 430000
2022-09-18 15:30 8.95 105000 572000 (2008) 54600 (1937) 161000 66600 72800 89500 101000 123000 180000 197000 324000 430000
2022-09-18 15:00 8.95 105000 572000 (2008) 54600 (1937) 161000 66600 72800 89500 101000 123000 180000 197000 324000 430000
2022-09-18 14:30 8.95 105000 572000 (2008) 54600 (1937) 161000 66600 72800 89500 101000 123000 180000 197000 324000 430000
2022-09-18 14:00 8.95 105000 572000 (2008) 54600 (1937) 161000 66600 72800 89500 101000 123000 180000 197000 324000 430000
2022-09-18 13:30 8.93 104000 572000 (2008) 54600 (1937) 161000 66600 72800 89500 101000 123000 180000 197000 324000 430000
2022-09-18 13:00 8.95 104000 572000 (2008) 54600 (1937) 161000 66600 72800 89500 101000 123000 180000 197000 324000 430000
2022-09-18 12:30 8.93 104000 572000 (2008) 54600 (1937) 161000 66600 72800 89500 101000 123000 180000 197000 324000 430000
2022-09-18 12:00 8.95 104000 572000 (2008) 54600 (1937) 161000 66600 72800 89500 101000 123000 180000 197000 324000 430000
2022-09-18 11:30 8.93 104000 572000 (2008) 54600 (1937) 161000 66600 72800 89500 101000 123000 180000 197000 324000 430000
2022-09-18 11:00 8.91 104000 572000 (2008) 54600 (1937) 161000 66600 72800 89500 101000 123000 180000 197000 324000 430000
2022-09-18 10:30 8.90 104000 572000 (2008) 54600 (1937) 161000 66600 72800 89500 101000 123000 180000 197000 324000 430000
2022-09-18 10:00 8.90 104000 572000 (2008) 54600 (1937) 161000 66600 72800 89500 101000 123000 180000 197000 324000 430000
2022-09-18 09:30 8.90 104000 572000 (2008) 54600 (1937) 161000 66600 72800 89500 101000 123000 180000 197000 324000 430000
2022-09-18 09:00 8.90 104000 572000 (2008) 54600 (1937) 161000 66600 72800 89500 101000 123000 180000 197000 324000 430000
2022-09-18 08:30 8.87 104000 572000 (2008) 54600 (1937) 161000 66600 72800 89500 101000 123000 180000 197000 324000 430000
2022-09-18 08:00 8.90 104000 572000 (2008) 54600 (1937) 161000 66600 72800 89500 101000 123000 180000 197000 324000 430000
2022-09-18 07:30 8.87 104000 572000 (2008) 54600 (1937) 161000 66600 72800 89500 101000 123000 180000 197000 324000 430000
2022-09-18 07:00 8.86 104000 572000 (2008) 54600 (1937) 161000 66600 72800 89500 101000 123000 180000 197000 324000 430000
2022-09-18 06:30 8.86 104000 572000 (2008) 54600 (1937) 161000 66600 72800 89500 101000 123000 180000 197000 324000 430000
2022-09-18 06:00 8.83 104000 572000 (2008) 54600 (1937) 161000 66600 72800 89500 101000 123000 180000 197000 324000 430000
2022-09-18 05:30 8.78 104000 572000 (2008) 54600 (1937) 161000 66600 72800 89500 101000 123000 180000 197000 324000 430000
2022-09-18 05:00 8.86 104000 572000 (2008) 54600 (1937) 161000 66600 72800 89500 101000 123000 180000 197000 324000 430000
2022-09-18 04:30 8.83 104000 572000 (2008) 54600 (1937) 161000 66600 72800 89500 101000 123000 180000 197000 324000 430000
2022-09-18 04:00 8.81 104000 572000 (2008) 54600 (1937) 161000 66600 72800 89500 101000 123000 180000 197000 324000 430000
2022-09-18 03:30 8.82 103000 572000 (2008) 54600 (1937) 161000 66600 72800 89500 101000 123000 180000 197000 324000 430000
2022-09-18 03:00 8.81 103000 572000 (2008) 54600 (1937) 161000 66600 72800 89500 101000 123000 180000 197000 324000 430000
2022-09-18 02:30 8.80 103000 572000 (2008) 54600 (1937) 161000 66600 72800 89500 101000 123000 180000 197000 324000 430000
2022-09-18 02:00 8.79 103000 572000 (2008) 54600 (1937) 161000 66600 72800 89500 101000 123000 180000 197000 324000 430000
2022-09-18 01:30 8.78 103000 572000 (2008) 54600 (1937) 161000 66600 72800 89500 101000 123000 180000 197000 324000 430000
2022-09-18 01:00 8.77 103000 572000 (2008) 54600 (1937) 161000 66600 72800 89500 101000 123000 180000 197000 324000 430000
2022-09-18 00:30 8.80 103000 572000 (2008) 54600 (1937) 161000 66600 72800 89500 101000 123000 180000 197000 324000 430000
2022-09-18 00:00 8.77 103000 572000 (2008) 54600 (1937) 161000 66600 72800 89500 101000 123000 180000 197000 324000 430000

A total of 380 rows are displayed for years 1933 through 2021.